"Pseudo-MPEC" for ST26H75

Created 2026 Aug 26 0:35:11 UT using Find_Orb

Click here for an explanation of pseudo-MPECs

 
 Astrometry: 
     ST26H75* C2026 08 22.40115223 48 32.693+05 58 41.28   ~8OFo 20.00GVNEOCPU68
     ST26H75  C2026 08 22.40449323 48 14.380+05 58 25.57   ~8OFo 20.00GVNEOCPU68
     ST26H75* C2026 08 22.41416823 47 21.679+05 57 43.89   ~8OFo 19.59GVNEOCPU74
     ST26H75  C2026 08 22.41697423 47 06.622+05 57 32.39   ~8OFo 19.59GVNEOCPU74

Station data:
(U68) JPL SynTrack Robotic Telescope, Auberry  (N37.070387 W119.412990)
   US/California.  Observers N. Saini, C. Zhai, R. Trahan, M. Zhan, M. Shao.
   0.28-m f/2.2 Schmidt + CCD.
(U74) JPL SynTrack Robotic Telescope 2, Auberry  (N37.070341 W119.412800)
   US/California.  Observers N. Saini, C. Zhai, R. Trahan, M. Zhan, M. Shao.
   0.36-m f/2.2 Schmidt.

Orbital elements:  ST26H75
   Perihelion 2026 Jun 27.199629 +/- 53.2 TT =  4:47:27.9 (JD 2461218.699629)
Epoch 2026 Aug 22.0 TT = JDT 2461274.5   Earth MOID: 0.0072   Ve: 0.0693
M  64.563622986 +/- 60              Me: 0.0095                   AutoNEOCP
n   1.157046479 +/- 0.639           Peri.  218.635764 +/- 45
a   0.898605030 +/- 0.331           Node   329.367510 +/- 1.1
e   0.68134452 +/- 0.23             Incl.   24.083950 +/- 51
P   0.852/311.131d         H 26.31  G  0.15   U 12.4  SR
q 0.286345416 +/- 0.248    Q 1.510864645 +/- 1.65         (J2000 ecliptic)
From 4 observations 2026 Aug. 22 (22.8 min); mean residual 0".80
Residuals in arcseconds: 
260822 U68  .67+  .58+    260822 U74  1.3-  .32-    
260822 U68  .55-  .67-    260822 U74  1.2+  .41+    

Ephemerides (geocentric):
Date (UTC) HH   RA             Dec           delta  r     elong  mag " sig PA
---- --------  ------------   ------------  ------ ------ -----  --- --------
2026 08 26 01  21 14 06.472   +02 43 00.84  .06740 1.0740 159.3 21.6  20d  96
2026 08 26 02  21 13 23.760   +02 41 48.46  .06791 1.0744 159.2 21.6  20d  96
2026 08 26 03  21 12 41.688   +02 40 37.00  .06842 1.0748 159.0 21.6  20d  96
2026 08 26 04  21 12 00.243   +02 39 26.46  .06893 1.0752 158.9 21.7  21d  96
2026 08 26 05  21 11 19.411   +02 38 16.81  .06944 1.0756 158.7 21.7  21d  96
2026 08 26 06  21 10 39.181   +02 37 08.04  .06995 1.0760 158.6 21.7  21d  96
2026 08 26 07  21 09 59.540   +02 36 00.14  .07046 1.0764 158.5 21.7  21d  96
2026 08 26 08  21 09 20.475   +02 34 53.08  .07097 1.0768 158.3 21.7  21d  96
2026 08 26 09  21 08 41.976   +02 33 46.85  .07148 1.0773 158.2 21.8  21d  96
2026 08 26 10  21 08 04.031   +02 32 41.45  .07199 1.0777 158.0 21.8  21d  96
2026 08 26 11  21 07 26.629   +02 31 36.85  .07251 1.0781 157.9 21.8  21d  96
2026 08 26 12  21 06 49.760   +02 30 33.03  .07302 1.0785 157.8 21.8  21d  96
2026 08 26 13  21 06 13.411   +02 29 30.00  .07353 1.0789 157.6 21.8  22d  96
2026 08 26 14  21 05 37.574   +02 28 27.72  .07405 1.0793 157.5 21.9  22d  96
2026 08 26 15  21 05 02.239   +02 27 26.20  .07457 1.0797 157.4 21.9  22d  96
2026 08 26 16  21 04 27.395   +02 26 25.41  .07508 1.0801 157.2 21.9  22d  96
2026 08 26 17  21 03 53.033   +02 25 25.34  .07560 1.0805 157.1 21.9  22d  96
2026 08 26 18  21 03 19.143   +02 24 25.98  .07611 1.0809 157.0 21.9  22d  96
2026 08 26 19  21 02 45.718   +02 23 27.32  .07663 1.0813 156.8 22.0  22d  96
2026 08 26 20  21 02 12.747   +02 22 29.35  .07715 1.0818 156.7 22.0  22d  96
2026 08 26 21  21 01 40.223   +02 21 32.05  .07767 1.0822 156.6 22.0  22d  96
2026 08 26 22  21 01 08.136   +02 20 35.42  .07819 1.0826 156.5 22.0  22d  96
2026 08 26 23  21 00 36.479   +02 19 39.43  .07871 1.0830 156.3 22.0  22d  96
2026 08 27 00  21 00 05.244   +02 18 44.09  .07923 1.0834 156.2 22.0  23d  96
2026 08 27 01  20 59 34.422   +02 17 49.37  .07975 1.0838 156.1 22.1  23d  96
2026 08 27 02  20 59 04.006   +02 16 55.28  .08027 1.0842 156.0 22.1  23d  96
2026 08 27 03  20 58 33.989   +02 16 01.79  .08079 1.0846 155.8 22.1  23d  96
2026 08 27 04  20 58 04.363   +02 15 08.90  .08131 1.0850 155.7 22.1  23d  96
2026 08 27 05  20 57 35.122   +02 14 16.60  .08183 1.0854 155.6 22.1  23d  96
2026 08 27 06  20 57 06.257   +02 13 24.87  .08236 1.0858 155.5 22.2  23d  96
2026 08 27 07  20 56 37.764   +02 12 33.71  .08288 1.0862 155.3 22.2  23d  96
2026 08 27 08  20 56 09.634   +02 11 43.12  .08340 1.0866 155.2 22.2  23d  96
2026 08 27 09  20 55 41.861   +02 10 53.07  .08393 1.0870 155.1 22.2  23d  96
2026 08 27 10  20 55 14.439   +02 10 03.56  .08445 1.0874 155.0 22.2  23d  96
2026 08 27 11  20 54 47.362   +02 09 14.59  .08498 1.0879 154.9 22.2  23d  96
2026 08 27 12  20 54 20.624   +02 08 26.13  .08550 1.0883 154.8 22.3  23d  96
2026 08 27 13  20 53 54.219   +02 07 38.20  .08603 1.0887 154.6 22.3  24d  96
2026 08 27 14  20 53 28.141   +02 06 50.76  .08655 1.0891 154.5 22.3  24d  96
2026 08 27 15  20 53 02.384   +02 06 03.83  .08708 1.0895 154.4 22.3  24d  96
2026 08 27 16  20 52 36.943   +02 05 17.38  .08761 1.0899 154.3 22.3  24d  96
2026 08 27 17  20 52 11.812   +02 04 31.42  .08813 1.0903 154.2 22.3  24d  96
2026 08 27 18  20 51 46.987   +02 03 45.93  .08866 1.0907 154.1 22.4  24d  96
2026 08 27 19  20 51 22.462   +02 03 00.91  .08919 1.0911 154.0 22.4  24d  96
2026 08 27 20  20 50 58.232   +02 02 16.35  .08972 1.0915 153.8 22.4  24d  96
2026 08 27 21  20 50 34.291   +02 01 32.23  .09024 1.0919 153.7 22.4  24d  96
2026 08 27 22  20 50 10.636   +02 00 48.57  .09077 1.0923 153.6 22.4  24d  96
2026 08 27 23  20 49 47.261   +02 00 05.34  .09130 1.0927 153.5 22.4  24d  96
2026 08 28 00  20 49 24.163   +01 59 22.54  .09183 1.0931 153.4 22.5  24d  96